Weather History for KABY - April, 2013

Change the Weather History Date:

Thursday, April 18, 2013

  Actual Average Record
Temperature  
Mean Temperature 72 °F 67 °F  
Max Temperature 84 °F 80 °F 90 °F (2002)
Min Temperature 59 °F 54 °F 37 °F (1999)
Degree Days  
Heating Degree Days 0 2  
Month to date heating degree days 49 53  
Since 1 July heating degree days 1673 1822  
Cooling Degree Days 7 4  
Month to date cooling degree days 56 47  
Year to date cooling degree days 95 85  
Growing Degree Days 22 (Base 50)    
Moisture  
Dew Point 62 °F    
Average Humidity 72    
Maximum Humidity 97    
Minimum Humidity 47    
Precipitation  
Precipitation 0.00 in 0.12 in 1.24 in (2014)
Month to date precipitation 1.26 2.52  
Year to date precipitation 14.18 16.55  
Sea Level Pressure  
Sea Level Pressure 30.04 in    
Wind  
Wind Speed 7 mph (SSE)    
Max Wind Speed 18 mph    
Max Gust Speed 22 mph    
Visibility 10 miles    
Events      
T = Trace of Precipitation, MM = Missing Value Source: NWS Daily Summary

Daily Weather History Graph

Daily Weather History Graph

Search for Another Location

Airport or City:

Trip Planner

Search our weather history database for the weather conditions in past years. The results will help you decide how hot, cold, wet, or windy it might be!

Date:

Astronomy

Apr. 18, 2013 Rise Set
Actual Time 7:04 AM EDT 8:07 PM EDT
Civil Twilight 6:39 AM EDT 8:32 PM EDT
Nautical Twilight 6:09 AM EDT 9:02 PM EDT
Astronomical Twilight 5:39 AM EDT 9:33 PM EDT
Moon 1:19 PM EDT (4/18) 2:16 AM EDT (4/18)
Length of Visible Light 13h 53m
Length of Day
13h 03m
First Quarter, 51% of the Moon is Illuminated
Apr 18
First Quarter
Apr 25
Full
May 2
Last Quarter
May 9
New
May 18
First Quarter

Hourly Weather History & Observations

Time (EDT) Temp. Heat Index Dew Point Humidity Pressure Visibility Wind Dir Wind Speed Gust Speed Precip Events Conditions
12:53 AM 68.0 °F - 61.0 °F 78% 30.10 in 10.0 mi SE 3.5 mph - N/A   Clear
1:53 AM 66.0 °F - 61.0 °F 84% 30.09 in 10.0 mi SE 3.5 mph - N/A   Clear
2:53 AM 64.0 °F - 61.0 °F 90% 30.08 in 10.0 mi Calm Calm - N/A   Clear
3:53 AM 62.1 °F - 61.0 °F 96% 30.06 in 10.0 mi Calm Calm - N/A   Clear
4:53 AM 61.0 °F - 59.0 °F 93% 30.07 in 10.0 mi Calm Calm - N/A   Clear
5:53 AM 60.1 °F - 59.0 °F 96% 30.06 in 10.0 mi ESE 3.5 mph - N/A   Clear
6:53 AM 60.1 °F - 59.0 °F 96% 30.06 in 10.0 mi East 5.8 mph - N/A   Clear
7:53 AM 63.0 °F - 61.0 °F 93% 30.08 in 8.0 mi East 3.5 mph - N/A   Clear
8:53 AM 66.9 °F - 64.0 °F 90% 30.08 in 10.0 mi SE 8.1 mph - N/A   Clear
9:53 AM 73.0 °F - 64.9 °F 76% 30.09 in 10.0 mi SE 16.1 mph 19.6 mph N/A   Scattered Clouds
10:23 AM 75.2 °F - 64.4 °F 69% 30.09 in 10.0 mi SSE 13.8 mph - N/A   Mostly Cloudy
10:53 AM 75.9 °F - 64.0 °F 67% 30.09 in 10.0 mi SSE 12.7 mph - N/A   Mostly Cloudy
11:53 AM 78.1 °F - 64.0 °F 62% 30.08 in 10.0 mi SE 10.4 mph - N/A   Mostly Cloudy
12:53 PM 79.0 °F - 62.1 °F 56% 30.07 in 10.0 mi South 10.4 mph 18.4 mph N/A   Mostly Cloudy
1:53 PM 82.9 °F 83.7 °F 62.1 °F 49% 30.04 in 10.0 mi SSE 12.7 mph 20.7 mph N/A   Mostly Cloudy
2:53 PM 84.0 °F 84.5 °F 62.1 °F 47% 30.02 in 10.0 mi South 11.5 mph 18.4 mph N/A   Mostly Cloudy
3:53 PM 82.0 °F 82.7 °F 61.0 °F 49% 30.00 in 10.0 mi SSE 9.2 mph - N/A   Scattered Clouds
4:53 PM 82.9 °F 83.2 °F 60.1 °F 46% 29.98 in 10.0 mi SSW 4.6 mph 17.3 mph N/A   Mostly Cloudy
5:53 PM 82.9 °F 83.3 °F 61.0 °F 47% 29.98 in 10.0 mi South 12.7 mph - N/A   Scattered Clouds
6:53 PM 82.0 °F 83.1 °F 63.0 °F 52% 29.97 in 10.0 mi South 8.1 mph - N/A   Partly Cloudy
7:53 PM 78.1 °F - 62.1 °F 58% 29.98 in 10.0 mi South 5.8 mph - N/A   Clear
8:53 PM 73.9 °F - 62.1 °F 66% 29.99 in 10.0 mi SSW 4.6 mph - N/A   Clear
9:53 PM 71.1 °F - 61.0 °F 70% 29.99 in 10.0 mi South 3.5 mph - N/A   Clear
10:53 PM 71.1 °F - 61.0 °F 70% 29.99 in 10.0 mi South 5.8 mph - N/A   Clear
11:53 PM 70.0 °F - 61.0 °F 73% 29.98 in 10.0 mi South 5.8 mph - N/A   Clear